Location: *
(2.5500°S, 65.9667°W)
Time: 17:38:12
(UTC+00:00)

Vanguard 1 - All Passes

Search period start: 19 April 2024 00:00
Search period end: 29 April 2024 00:00
Orbit: 653 x 3825 km, 34.2° (Epoch: 17 April)

Date Brightness Start Highest point End Pass type
(mag) Time Alt. Az. Time Alt. Az. Time Alt. Az.
19 Apr - 01:42:50 10° SSW 01:54:23 25° SSE 02:10:26 10° E visible
19 Apr - 04:03:01 10° SW 04:21:50 64° SE 04:44:59 10° ENE visible
19 Apr - 06:27:17 10° WSW 06:49:30 62° NW 07:10:01 10° NE visible
19 Apr - 09:01:14 10° W 09:17:22 24° NW 09:30:00 10° NNE visible
19 Apr - 16:34:02 10° NNW 16:38:12 23° NNE 16:41:46 10° E daylight
19 Apr - 18:54:24 10° W 18:58:17 29° SSW 19:02:47 10° SSE daylight
20 Apr - 02:02:41 10° SSW 02:15:44 32° SE 02:34:14 10° E visible
20 Apr - 04:23:17 10° SW 04:42:46 77° SE 05:06:14 10° ENE visible
20 Apr - 06:48:51 10° WSW 07:10:31 51° NW 07:30:06 10° NE visible
20 Apr - 09:26:19 10° WNW 09:39:05 18° NNW 09:49:21 10° N visible
20 Apr - 16:53:41 10° NW 16:58:35 42° NE 17:02:47 10° ESE daylight
20 Apr - 19:15:52 10° WSW 19:18:49 17° SSW 19:22:10 10° SSE daylight
21 Apr - 00:05:18 10° S 00:09:54 12° SSE 00:15:27 10° SE visible
21 Apr - 02:22:33 10° SSW 02:36:49 40° SE 02:57:20 10° E visible
21 Apr - 04:43:45 10° SW 05:03:40 89° NW 05:27:07 10° NE visible
21 Apr - 07:10:58 10° W 07:31:42 41° NW 07:50:03 10° NNE visible
21 Apr - 09:52:36 10° NW 10:01:10 14° NNW 10:08:23 10° N visible
21 Apr - 14:55:38 10° N 14:57:30 11° NNE 14:59:11 10° NE daylight
21 Apr - 17:13:47 10° NW 17:18:50 84° NE 17:23:18 10° SE daylight
22 Apr - 00:24:23 10° S 00:31:30 16° SSE 00:40:56 10° ESE visible
22 Apr - 02:42:29 10° SW 02:57:42 50° SE 03:19:46 10° ENE visible
22 Apr - 05:04:26 10° WSW 05:24:37 75° NW 05:47:44 10° NE visible
22 Apr - 07:33:45 10° W 07:53:05 32° NW 08:09:55 10° NNE visible
22 Apr - 10:20:49 10° NNW 10:23:34 10° NNW 10:26:08 10° N daylight
22 Apr - 15:13:53 10° NNW 15:18:24 18° NNE 15:21:55 10° ENE daylight
22 Apr - 17:34:18 10° WNW 17:39:02 49° SW 17:43:23 10° SE daylight
23 Apr - 00:43:46 10° SSW 00:52:49 22° SSE 01:05:41 10° ESE visible
23 Apr - 03:02:30 10° SW 03:18:28 63° SE 03:41:37 10° ENE visible
23 Apr - 05:25:26 10° WSW 05:45:39 62° NW 06:08:06 10° NE visible
23 Apr - 07:57:22 10° W 08:14:46 26° NNW 08:29:43 10° NNE visible
23 Apr - 15:33:18 10° NNW 15:39:05 30° NNE 15:43:17 10° E daylight
23 Apr - 17:55:19 10° W 17:59:16 26° SW 18:03:03 10° SSE daylight
24 Apr - 01:03:18 10° SSW 01:13:51 29° SE 01:29:42 10° E visible
24 Apr - 03:22:39 10° SW 03:39:13 76° SE 04:03:01 10° ENE visible
24 Apr - 05:46:48 10° WSW 06:06:49 51° NW 06:28:19 10° NE visible
24 Apr - 08:21:55 10° WNW 08:36:49 20° NNW 08:49:30 10° NNE visible
24 Apr - 13:33:51 10° N 13:36:47 12° NNE 13:39:19 10° NE daylight
24 Apr - 15:53:13 10° NW 15:59:35 51° NNE 16:04:03 10° ESE daylight
24 Apr - 18:17:10 10° WSW 18:19:37 14° SSW 18:22:03 10° S daylight
25 Apr - 01:22:56 10° SSW 01:34:37 37° SE 01:52:57 10° E visible
25 Apr - 03:42:58 10° SW 04:00:01 89° NW 04:24:02 10° NE visible
25 Apr - 06:08:40 10° W 06:28:11 41° NW 06:48:25 10° NNE visible
25 Apr - 08:47:22 10° NW 08:59:14 16° NNW 09:09:21 10° NNE visible
25 Apr - 13:52:22 10° NNW 13:58:01 17° NNE 14:02:12 10° ENE daylight
25 Apr - 16:13:30 10° NW 16:19:51 88° SW 16:24:23 10° SE daylight
25 Apr - 23:26:50 10° S 23:30:47 12° SSE 23:35:32 10° SE visible
26 Apr - 01:42:41 10° SSW 01:55:14 48° SE 02:15:31 10° ENE visible
26 Apr - 04:03:31 10° WSW 04:20:54 74° NW 04:44:45 10° NE visible
26 Apr - 06:31:10 10° W 06:49:48 33° NNW 07:08:28 10° NNE visible
26 Apr - 09:13:21 10° NW 09:21:57 13° NNW 09:29:24 10° N visible
26 Apr - 11:52:51 10° N 11:53:24 10° N 11:53:57 10° N daylight
26 Apr - 14:11:46 10° NNW 14:19:01 25° NNE 14:23:52 10° E daylight
26 Apr - 16:34:13 10° WNW 16:40:00 47° SW 16:44:20 10° SE daylight
26 Apr - 23:45:14 10° S 23:51:49 18° SE 00:00:53 10° ESE visible
27 Apr - 02:02:34 10° SW 02:15:45 61° SE 02:37:30 10° ENE visible
27 Apr - 04:24:22 10° WSW 04:41:58 61° NW 05:05:14 10° NE visible
27 Apr - 06:54:23 10° WNW 07:11:45 27° NNW 07:28:30 10° NNE visible
27 Apr - 09:38:56 10° NNW 09:44:50 12° N 09:50:04 10° N visible
27 Apr - 12:10:02 10° NNW 12:15:18 13° NNE 12:19:31 10° NE daylight
27 Apr - 14:31:35 10° NW 14:39:47 38° NNE 14:44:54 10° E daylight
27 Apr - 16:55:25 10° W 17:00:06 26° SW 17:03:54 10° SSE daylight
28 Apr - 00:04:21 10° SSW 00:12:35 24° SE 00:25:02 10° E visible
28 Apr - 02:22:35 10° SW 02:36:19 76° SE 02:58:59 10° ENE visible
28 Apr - 04:45:34 10° WSW 05:03:12 50° NW 05:25:33 10° NE visible
28 Apr - 07:18:26 10° WNW 07:34:03 21° NNW 07:48:39 10° NNE visible
28 Apr - 10:02:41 10° NNW 10:07:42 11° N 10:12:09 10° NNE visible
28 Apr - 12:29:15 10° NNW 12:36:52 18° NNE 12:42:21 10° ENE daylight
28 Apr - 14:51:46 10° NW 15:00:19 61° NNE 15:05:28 10° ESE daylight
28 Apr - 17:17:29 10° WSW 17:20:16 14° SW 17:22:46 10° S daylight
